Regional Weather Roundup
Issued by NWS

Home | Current Version | Previous Version | Text Only | Print | Product List | Glossary Off
Versions: 1 2 3 4 5 6 7 8 9 10 11 12 13 14 15 16 17 18 19 20 21 22 23 24 25 26 27 28 29 30 31 32 33 34 35 36 37 38 39 40 41 42 43 44 45 46 47 48 49 50

000
ASUS43 KMPX 242301
RWRMN
WEATHER ROUNDUP FOR MINNESOTA
NATIONAL WEATHER SERVICE TWIN CITIES/CHANHASSEN MN
600 PM CDT MON JUL 24 2017


NOTE: "FAIR" INDICATES FEW OR NO CLOUDS BELOW 12,000 FEET WITH NO
SIGNIFICANT WEATHER AND/OR OBSTRUCTIONS TO VISIBILITY. N/A MEANS
CURRENT SKY AND/OR WEATHER CONDITIONS ARE NOT AVAILABLE.

MNZ060>063-068>070-250000-
   Twin Cities Metro

CITY           SKY/WX    TMP DP  RH WIND       PRES   REMARKS
TWIN CITIES    PTSUNNY   77  59  53 S9        30.03S
ST PAUL        MOSUNNY   75  61  61 S12       30.03S
CRYSTAL        MOSUNNY   76  57  51 S9        30.02R
BLAINE         PTSUNNY   79  61  53 SE8       30.03R
LAKEVILLE      MOSUNNY   73  61  64 S3        30.04S
EDEN PRAIRIE   MOSUNNY   76  61  59 S8        30.02S
SOUTH ST PAUL  MOSUNNY   76  58  55 S7        30.03S
LAKE ELMO      FAIR      73  61  64 SE9       30.05S
$$
MNZ001>005-007-008-013>017-022>024-027-028-250000-
   Northwest Minnesota

CITY           SKY/WX    TMP DP  RH WIND       PRES   REMARKS
BEMIDJI        MOSUNNY   74  57  54 SE12      29.99R
HALLOCK        SUNNY     79  64  61 S20G26    29.84F
ROSEAU         SUNNY     81  64  57 S20       29.90S
WARROAD        SUNNY     81  64  57 S12G17    29.91F
CROOKSTON      CLOUDY    79  63  57 S17       29.90S
FOSSTON        CLOUDY    75  63  64 SE8       29.96S
DETROIT LAKES  CLOUDY    73  61  64 S15       29.98S
MOORHEAD       CLOUDY    75  63  64 SE16G22   29.92S
PARK RAPIDS    CLOUDY    76  59  55 S14       30.00R
MAHNOMEN       FAIR      74  61  62 SE12G17   29.95S
$$
MNZ006-009>011-018-025>026-250000-
   North Central Minnesota

CITY           SKY/WX    TMP DP  RH WIND       PRES   REMARKS
BAUDETTE       SUNNY     79  58  48 S14       29.93F
FLAG ISLAND    SUNNY     75  63  64 S13       29.89F
INTL FALLS     SUNNY     77  54  44 S8        29.96F
WASKISH        MOSUNNY   79  61  53 S7        29.97R
BIG FORK       SUNNY     77  57  50 S8        30.01R
LONGVILLE      SUNNY     73  59  60 S9        30.02S
GRAND RAPIDS   MOSUNNY   74  60  61 S7        30.04R
CRANE LAKE     SUNNY     77  54  44 SE6       30.02S
ORR            SUNNY     77  50  38 S8        29.99S
COOK           SUNNY     75  54  46 S7        30.02S
WALKER         FAIR      73  59  61 SE10      30.00S
$$
MNZ012-019>021-037-250000-
   Northeast Minnesota

CITY           SKY/WX    TMP DP  RH WIND       PRES   REMARKS
DULUTH         SUNNY     71  56  58 E9        30.05S
ELY            SUNNY     75  46  35 S9        30.04R
HIBBING        SUNNY     74  55  51 SE7       30.03S
EVELETH        SUNNY     78  42  27 SE8       30.05S
DULUTH HARBOR  SUNNY     64  61  88 NE5       30.05S
TWO HARBORS    SUNNY     75  59  57 SE5       30.03S
GRAND MARAIS     N/A     60  57  89 SW5       30.05F
G MARAIS ARPRT SUNNY     68  48  49 S6        30.10S
$$
MNZ029>031-032-039>041-046>048-054>057-064-250000-
   West Central Minnesota

CITY           SKY/WX    TMP DP  RH WIND       PRES   REMARKS
FERGUS FALLS   CLOUDY    73  63  68 S13       29.94F
WHEATON        LGT RAIN  72  64  78 E13       29.92F
MORRIS         CLOUDY    75  63  64 SE12      29.96F
ALEXANDRIA     MOSUNNY   74  61  63 S13       30.02R
ELBOW LAKE     FAIR      72  64  75 E12       29.98F
WADENA         PTSUNNY   73  61  64 S10       30.00S
GLENWOOD       MOSUNNY   75  61  60 SE8       30.03R
APPLETON       CLOUDY    79  63  57 SE8       29.95F
BENSON         MOSUNNY   75  63  64 S8        30.00F
ORTONVILLE     CLOUDY    75  64  69 SE12G17   29.91F
MADISON        PTSUNNY   81  64  57 SE13G18   29.95F
WILLMAR        FAIR      75  63  64 SE8       30.03R
$$
MNZ033>034-036-042>043-049>051-058-059-250000-
   Central Minnesota

CITY           SKY/WX    TMP DP  RH WIND       PRES   REMARKS
ST CLOUD       CLOUDY    77  61  57 SE12      30.01S
SAUK CENTRE    FAIR      74  61  63 S8        30.03R
PAYNESVILLE    MOSUNNY   76  61  59 S8        30.03R
AITKIN         CLOUDY    73  59  60 S9        30.02S
PINE RIVER     CLOUDY    73  61  64 S9        30.04S
BRAINERD       CLOUDY    74  61  63 S7        30.02S
STAPLES        PTSUNNY   73  61  64 S7        30.02R
LONG PRAIRIE   FAIR      72  61  68 E8        30.03R
LITTLE FALLS   CLOUDY    73  59  60 SE9       30.02S
LITCHFIELD     MOSUNNY   79  63  57 SE7       30.01F
BUFFALO        SUNNY     74  58  56 SE8       30.03F
MAPLE LAKE     MOSUNNY   76  63  62 SE6       30.03F
HUTCHINSON     MOSUNNY   76  64  64 SE9       30.02F
$$
MNZ037-044-045-052-053-250000-
   East Central Minnesota

CITY           SKY/WX    TMP DP  RH WIND       PRES   REMARKS
PRINCETON      MOSUNNY   79  61  53 SE7       30.03S
MORA           MOSUNNY   73  59  60 S7        30.05R
CAMBRIDGE      SUNNY     77  61  57 SE5       30.02R
RUSH CITY      MOSUNNY   75  60  58 S5        30.04R
MOOSE LAKE     MOSUNNY   75  57  53 CALM      30.02R
HINCKLEY       FAIR      75  61  60 SE6       30.04R
CLOQUET        SUNNY     73  55  53 E7        30.04S
MCGREGOR       CLOUDY    73  59  60 S9        30.04R
$$
MNZ071>073-080-081-089-090-097-098-250000-
   Southwest Minnesota

CITY           SKY/WX    TMP DP  RH WIND       PRES   REMARKS
MONTEVIDEO     MOSUNNY   79  63  57 S8        29.99S
GRANITE FALLS  MOSUNNY   80  64  58 SE9       30.01R
CANBY          PTSUNNY   79  64  60 E12       29.96F
MARSHALL       MOSUNNY   79  65  62 SE13      29.99R
REDWOOD FALLS  MOSUNNY   78  62  57 S13       29.99S
OLIVIA         CLOUDY    77  63  61 SE9       30.01R
PIPESTONE      SUNNY     79  63  57 S9G18     29.98R
WINDOM         CLOUDY    79  61  53 SE12      30.00S
WORTHINGTON    SUNNY     79  64  60 SE10      29.99F
JACKSON        SUNNY     79  61  53 SE10      30.01S
TRACY          SUNNY     79  66  64 SE12      29.99R
SLAYTON        SUNNY     78  63  59 SE14      30.00R
$$
MNZ065>067-074>077-082>085-091>093-250000-
   South Central Minnesota

CITY           SKY/WX    TMP DP  RH WIND       PRES   REMARKS
MANKATO        MOSUNNY   76  62  62 SE12      30.02F
NEW ULM        CLOUDY    75  63  64 SE9       30.00F
ST JAMES       MOSUNNY   75  63  64 E12       30.01F
FAIRMONT       SUNNY     77  63  61 SE13      30.01F
GLENCOE        MOSUNNY   78  65  62 SE9       30.02S
FARIBAULT      PTSUNNY   75  61  60 SE8       30.05R
OWATONNA       CLOUDY    75  63  64 SE8       30.05R
WASECA         PTSUNNY   72  61  68 SE6       30.05S
ALBERT LEA     MOSUNNY   73  61  64 S6        30.04S
$$
MNZ078>079-086>088-094>096-250000-
   Southeast Minnesota

CITY           SKY/WX    TMP DP  RH WIND       PRES   REMARKS
ROCHESTER      MOSUNNY   72  61  68 SE9       30.06S
RED WING       SUNNY     75  55  50 SE12      30.03F
STANTON        MOSUNNY   76  61  58 S7        30.02S
DODGE CENTER   MOSUNNY   75  61  60 SE10      30.06S
WINONA         CLOUDY    73  59  60 SE7       30.06S
AUSTIN         MOSUNNY   73  61  64 S8        30.05S
PRESTON        MOSUNNY   73  58  60 SE7       30.07F
$$
ABBREVIATIONS USED IN REMARKS
   TC - TEMPERATURES IN CELSIUS
  WCI - WIND CHILL INDEX
   HX - HEAT INDEX
  VSB - VISIBILITY
$$




USA.gov is the U.S. government's official web portal to all federal, state and local government web resources and services.